FW8702 Weather Reports


time (UTC)temp
F
wind
direction
speed
knots
gust
knots
rain 1hr
in
rain 24hr
in
rain mn
in
humidity
%
barometer
mb
20260831160003 86 252 0.0 2.6 0.00 0.00 0.00 54 1014.3
20260831154517 86 229 0.0 2.6 0.00 0.00 0.00 51 1014.5
20260831153045 87 156 0.0 1.7 0.00 0.00 0.00 51 1014.5
20260831151527 86 203 0.0 2.6 0.00 0.00 0.00 49 1014.6
20260831150016 87 269 0.0 4.3 0.00 0.00 0.00 51 1014.6
20260831144542 87 224 0.0 2.6 0.00 0.00 0.00 51 1014.7
20260831143114 87 246 1.7 3.5 0.00 0.00 0.00 50 1014.8
20260831141555 87 65 0.0 5.2 0.00 0.00 0.00 51 1014.7
20260831140104 88 188 0.0 4.3 0.00 0.00 0.00 49 1014.7
20260831134536 87 188 0.9 6.1 0.00 0.00 0.00 52 1014.8
20260831133025 87 281 1.7 5.2 0.00 0.00 0.00 49 1014.9
20260831131518 87 161 0.0 5.2 0.00 0.00 0.00 52 1015.0
20260831130013 86 237 0.9 6.1 0.00 0.00 0.00 53 1015.0
20260831124553 87 177 0.0 5.2 0.00 0.00 0.00 52 1015.3
20260831123025 85 3 0.9 5.2 0.00 0.00 0.00 51 1015.4
20260831121558 85 246 2.6 7.0 0.00 0.00 0.00 51 1015.5
20260831120039 85 222 0.9 3.5 0.00 0.00 0.00 54 1015.5
20260831114535 86 230 0.9 7.8 0.00 0.00 0.00 52 1015.7
20260831113044 86 263 0.0 4.3 0.00 0.00 0.00 53 1016.1
20260831111601 85 181 1.7 6.1 0.00 0.00 0.00 54 1016.0
20260831110022 86 192 0.0 4.3 0.00 0.00 0.00 54 1016.1
20260831104502 84 198 0.0 2.6 0.00 0.00 0.00 53 1016.2
20260831103020 85 192 0.0 3.5 0.00 0.00 0.00 52 1016.1
20260831101556 84 65 0.9 3.5 0.00 0.00 0.00 54 1016.4
20260831100048 82 111 3.5 6.1 0.00 0.00 0.00 59 1016.3
20260831094607 82 31 0.0 2.6 0.00 0.00 0.00 61 1016.6
20260831093027 82 315 1.7 3.5 0.00 0.00 0.00 59 1016.6
20260831091546 81 283 0.0 4.3 0.00 0.00 0.00 68 1016.5
20260831090024 79 224 3.5 5.2 0.00 0.00 0.00 65 1016.7
20260831084608 79 258 0.0 2.6 0.00 0.00 0.00 66 1016.6
20260831083103 79 238 0.9 3.5 0.00 0.00 0.00 64 1016.6
20260831081538 78 296 0.9 2.6 0.00 0.00 0.00 66 1016.5
20260831080002 77 356 0.9 3.5 0.00 0.00 0.00 67 1016.5
20260831074520 77 286 0.9 2.6 0.00 0.00 0.00 67 1016.3
20260831073036 76 277 0.0 3.5 0.00 0.00 0.00 69 1016.5
20260831071604 75 30 3.5 7.8 0.00 0.00 0.00 70 1016.4
20260831070103 75 13 2.6 7.8 0.00 0.00 0.00 71 1016.4
20260831064550 74 57 2.6 7.0 0.00 0.00 0.00 71 1016.5
20260831063050 73 256 0.0 1.7 0.00 0.00 0.00 75 1016.5
20260831061543 71 292 0.9 3.5 0.00 0.00 0.00 77 1016.5
20260831060105 71 279 0.0 3.5 0.00 0.00 0.00 77 1016.4
20260831054531 70 273 1.7 2.6 0.00 0.00 0.00 78 1016.5
20260831053018 69 45 0.0 2.6 0.00 0.00 0.00 80 1016.5
20260831051503 69 244 0.9 2.6 0.00 0.00 0.00 78 1016.5
20260831050001 71 305 1.7 8.7 0.00 0.00 0.00 75 1016.4
20260831044536 71 256 0.0 5.2 0.00 0.00 0.00 74 1016.3
20260831043101 71 326 3.5 9.6 0.00 0.00 0.00 75 1016.2
20260831041513 70 8 2.6 4.3 0.00 0.00 0.00 78 1016.2
20260831040036 70 88 0.0 4.3 0.00 0.00 0.00 81 1016.2
20260831034510 67 300 0.0 0.0 0.00 0.00 0.00 81 1016.5
20260831033052 69 293 0.9 3.5 0.00 0.00 0.00 79 1016.6
20260831031552 70 231 0.0 5.2 0.00 0.00 0.00 77 1016.4
20260831030026 71 319 1.7 5.2 0.00 0.00 0.00 76 1016.3
20260831024509 71 260 0.9 3.5 0.00 0.00 0.00 76 1016.4
20260831023047 70 40 1.7 4.3 0.00 0.00 0.00 79 1016.4
20260831021521 70 285 0.9 5.2 0.00 0.00 0.00 80 1016.6
20260831020029 68 257 0.9 2.6 0.00 0.00 0.00 82 1016.5
20260831014539 68 279 0.9 3.5 0.00 0.00 0.00 82 1016.5
20260831013056 69 275 0.0 1.7 0.00 0.00 0.00 81 1016.7
20260831011540 70 79 0.0 1.7 0.00 0.00 0.00 80 1016.5
20260831010003 71 341 0.0 1.7 0.00 0.00 0.00 79 1016.8
20260831004557 71 325 3.5 8.7 0.00 0.00 0.00 78 1016.5
20260831003035 70 284 0.0 1.7 0.00 0.00 0.00 81 1016.6
20260831001523 70 352 0.0 3.5 0.00 0.00 0.00 81 1016.6
20260831000035 71 26 0.0 0.9 0.00 0.00 0.00 81 1016.7
20260830234515 70 297 0.9 3.5 0.00 0.00 0.00 82 1016.8
20260830233040 69 354 0.0 1.7 0.00 0.00 0.00 82 1016.8
20260830231605 70 285 0.9 2.6 0.00 0.00 0.00 82 1016.9
20260830230021 70 311 0.0 0.9 0.00 0.00 0.00 82 1016.8
20260830224537 70 344 0.0 1.7 0.00 0.00 0.00 82 1016.8
20260830223027 70 338 0.0 1.7 0.00 0.00 0.00 82 1016.8
20260830221559 69 346 0.0 0.9 0.00 0.00 0.00 82 1017.0
20260830220037 69 285 0.0 0.9 0.00 0.00 0.00 82 1016.9
20260830214505 68 283 0.0 0.9 0.00 0.00 0.00 82 1016.8
20260830213013 68 283 0.0 0.0 0.00 0.00 0.00 82 1016.7
20260830211559 68 283 0.0 0.9 0.00 0.00 0.00 82 1016.6
20260830210056 68 288 0.0 0.0 0.00 0.00 0.00 82 1016.5
20260830204542 69 288 0.0 0.0 0.00 0.00 0.00 81 1016.5
20260830203044 69 296 0.0 0.0 0.00 0.00 0.00 81 1016.4
20260830201526 70 296 0.0 1.7 0.00 0.00 0.00 80 1016.4
20260830200041 70 297 0.0 0.0 0.00 0.00 0.00 80 1016.4
20260830194540 71 297 0.0 0.9 0.00 0.00 0.00 79 1016.4
20260830193056 71 301 0.0 0.0 0.00 0.00 0.00 78 1016.3
20260830191505 72 305 0.0 0.9 0.00 0.00 0.00 77 1016.1
20260830190056 72 305 0.0 0.9 0.00 0.00 0.00 77 1016.0
20260830184500 72 285 0.0 1.7 0.00 0.00 0.00 77 1016.0
20260830183051 73 280 0.0 0.0 0.00 0.00 0.00 76 1015.6
20260830181511 74 280 0.0 0.0 0.00 0.00 0.00 75 1015.6
20260830180052 75 283 0.0 0.9 0.00 0.00 0.00 72 1015.4
20260830174524 78 280 0.9 1.7 0.00 0.00 0.00 69 1015.3
20260830173109 82 150 0.0 0.0 0.00 0.00 0.00 58 1015.1
20260830171605 83 150 0.0 0.0 0.00 0.00 0.00 52 1015.1
20260830170018 84 242 0.0 0.0 0.00 0.00 0.00 50 1015.0
20260830164554 85 242 0.9 1.7 0.00 0.00 0.00 47 1015.1
20260830163028 85 218 0.9 3.5 0.00 0.00 0.00 46 1015.2
20260830161549 86 212 0.0 0.9 0.00 0.00 0.00 48 1015.2